Change the Weather History Date:

Sunday, December 2, 2012

  Actual Average Record
Temperature  
Mean Temperature 37 °F -  
Max Temperature 46 °F 42 °F 66 °F (2013)
Min Temperature 28 °F 21 °F -1 °F (1989)
Degree Days  
Heating Degree Days 28    
Moisture  
Dew Point 33 °F    
Average Humidity 94    
Maximum Humidity 100    
Minimum Humidity 89    
Precipitation  
Precipitation 0.03 in - - ()
Sea Level Pressure  
Sea Level Pressure 30.28 in    
Wind  
Wind Speed 4 mph (West)    
Max Wind Speed 9 mph    
Max Gust Speed -    
Visibility 2 miles    
Events Fog , Rain    
Averages and records for this station are not official NWS values.
T = Trace of Precipitation, MM = Missing Value Source: NWS Daily Summary

Daily Weather History Graph

Daily Weather History Graph

Search for Another Location

Airport or City:

Trip Planner

Search our weather history database for the weather conditions in past years. The results will help you decide how hot, cold, wet, or windy it might be!

Date:

Astronomy

Dec. 02, 2012 Rise Set
Actual Time 6:58 AM EST 4:11 PM EST
Civil Twilight 6:26 AM EST 4:43 PM EST
Nautical Twilight 5:51 AM EST 5:19 PM EST
Astronomical Twilight 5:17 AM EST 5:53 PM EST
Moon 7:59 PM EST (12/2) 9:44 AM EST (12/2)
Length of Visible Light 10h 16m
Length of Day
9h 13m
Waning Gibbous, 86% of the Moon is Illuminated
Dec 2
Waning Gibbous
Dec 6
Last Quarter
Dec 13
New
Dec 20
First Quarter
Dec 28
Full

Hourly Weather History & Observations

Time (EST) Temp. Windchill Dew Point Humidity Pressure Visibility Wind Dir Wind Speed Gust Speed Precip Events Conditions
12:11 AM 28.4 °F 23.3 °F 26.6 °F 93% 30.49 in 6.0 mi North 4.6 mph - 0.00 in   Overcast
12:53 AM 28.0 °F 24.2 °F 26.1 °F 92% 30.53 in 6.0 mi NNE 3.5 mph - 0.00 in   Overcast
1:48 AM 28.4 °F 21.2 °F 26.6 °F 93% 30.47 in 6.0 mi North 6.9 mph - 0.00 in   Light Freezing Drizzle
1:53 AM 28.0 °F 21.7 °F 26.1 °F 92% 30.54 in 6.0 mi NNW 5.8 mph - 0.00 in   Light Freezing Drizzle
2:53 AM 28.0 °F 20.0 °F 26.1 °F 92% 30.52 in 4.0 mi North 8.1 mph - 0.00 in   Overcast
3:53 AM 28.9 °F 23.9 °F 27.0 °F 92% 30.48 in 5.0 mi NNW 4.6 mph - N/A   Overcast
4:53 AM 28.9 °F 25.2 °F 27.0 °F 92% 30.47 in 4.0 mi NNE 3.5 mph - N/A   Overcast
5:53 AM 28.9 °F 25.2 °F 28.0 °F 96% 30.46 in 3.0 mi North 3.5 mph - N/A   Overcast
6:19 AM 30.2 °F 24.3 °F 28.4 °F 93% 30.39 in 2.5 mi North 5.8 mph - N/A   Overcast
6:53 AM 30.0 °F 26.5 °F 28.9 °F 96% 30.44 in 1.8 mi NNW 3.5 mph - N/A   Overcast
7:21 AM 30.2 °F - 28.4 °F 93% 30.37 in 0.5 mi Calm Calm - N/A   Overcast
7:53 AM 30.0 °F - 28.9 °F 96% 30.42 in 0.5 mi Calm Calm - N/A Fog Light Freezing Fog
8:53 AM 30.9 °F - 30.0 °F 96% 30.40 in 0.5 mi Calm Calm - N/A Fog Light Freezing Fog
9:49 AM 30.2 °F - 30.2 °F 100% 30.32 in 0.5 mi Calm Calm - N/A Fog Light Freezing Fog
9:53 AM 30.9 °F - 30.0 °F 96% 30.38 in 0.5 mi Calm Calm - N/A Fog Light Freezing Fog
10:53 AM 32.0 °F - 30.9 °F 96% 30.35 in 0.5 mi Calm Calm - N/A Fog Fog
11:53 AM 34.0 °F - 33.1 °F 96% 30.30 in 0.5 mi Calm Calm - N/A Fog Fog
12:46 PM 35.6 °F 32.8 °F 35.6 °F 100% 30.21 in 0.5 mi WSW 3.5 mph - N/A Fog Fog
12:53 PM 36.0 °F 33.3 °F 35.1 °F 97% 30.27 in 0.5 mi SSW 3.5 mph - N/A Fog Fog
1:36 PM 37.4 °F 33.8 °F 35.6 °F 93% 30.18 in 2.0 mi SSW 4.6 mph - N/A   Overcast
1:53 PM 37.9 °F 32.1 °F 37.0 °F 97% 30.23 in 2.0 mi South 8.1 mph - N/A   Overcast
2:53 PM 37.9 °F 33.5 °F 37.0 °F 97% 30.19 in 0.2 mi South 5.8 mph - N/A Fog Fog
3:44 PM 39.2 °F - 37.4 °F 93% 30.12 in 0.5 mi Calm Calm - N/A   Overcast
3:53 PM 39.0 °F - 37.0 °F 93% 30.17 in 0.8 mi Calm Calm - N/A   Overcast
4:01 PM 39.2 °F - 37.4 °F 93% 30.11 in 0.8 mi Calm Calm - 0.00 in Rain Light Rain
4:22 PM 39.2 °F - 37.4 °F 93% 30.10 in 1.0 mi Calm Calm - 0.00 in Rain Light Rain
4:53 PM 39.0 °F - 37.0 °F 93% 30.15 in 1.5 mi Calm Calm - 0.00 in   Overcast
4:58 PM 39.2 °F - 37.4 °F 93% 30.10 in 1.5 mi Calm Calm - N/A   Overcast
5:53 PM 39.0 °F 36.8 °F 37.0 °F 93% 30.12 in 1.5 mi WSW 3.5 mph - N/A   Partly Cloudy
6:53 PM 37.9 °F 34.4 °F 37.0 °F 97% 30.10 in 2.0 mi WNW 4.6 mph - N/A   Scattered Clouds
7:53 PM 43.0 °F 37.7 °F 39.9 °F 89% 30.06 in 6.0 mi SSE 9.2 mph - 0.00 in Rain Light Rain
8:53 PM 42.1 °F 39.2 °F 39.9 °F 92% 30.09 in 5.0 mi South 4.6 mph - 0.00 in Rain Light Rain
9:53 PM 44.1 °F 42.5 °F 41.0 °F 89% 30.07 in 5.0 mi SSW 3.5 mph - 0.01 in Rain Light Rain
10:53 PM 46.0 °F 43.9 °F 44.1 °F 93% 30.06 in 3.0 mi SSW 4.6 mph - 0.02 in Rain Light Rain
11:53 PM 46.0 °F 42.5 °F 44.1 °F 93% 30.04 in 3.0 mi South 6.9 mph - 0.00 in   Mostly Cloudy